Time,TemperatureF,DewpointF,PressureIn,WindDirection,WindDirectionDegrees,WindSpeedMPH,WindSpeedGustMPH,Humidity,HourlyPrecipIn,Conditions,Clouds,dailyrainin,SoftwareType,DateUTC
2013-01-12 00:12:00,64.4,63.0,29.88,SE,142,2.0,3.0,95,0.00,,,0.00,weatherlink.com 1.10,2013-01-12 06:12:00,
2013-01-12 00:27:00,64.4,63.0,29.89,South,182,0.0,5.0,96,0.00,,,0.00,weatherlink.com 1.10,2013-01-12 06:27:00,
2013-01-12 00:42:00,64.5,63.0,29.89,SSE,161,0.0,3.0,96,0.00,,,0.00,weatherlink.com 1.10,2013-01-12 06:42:00,
2013-01-12 00:57:00,64.4,63.0,29.89,SE,135,1.0,3.0,96,0.00,,,0.00,weatherlink.com 1.10,2013-01-12 06:57:00,
2013-01-12 01:12:00,64.4,63.0,29.88,ESE,122,0.0,3.0,96,0.00,,,0.00,weatherlink.com 1.10,2013-01-12 07:12:00,
2013-01-12 01:27:00,64.5,63.0,29.88,SSE,150,2.0,5.0,96,0.00,,,0.00,weatherlink.com 1.10,2013-01-12 07:27:00,
2013-01-12 01:42:00,64.6,64.0,29.88,SE,128,1.0,3.0,96,0.00,,,0.00,weatherlink.com 1.10,2013-01-12 07:42:00,
2013-01-12 01:57:00,64.7,64.0,29.88,SSE,162,0.0,3.0,96,0.00,,,0.00,weatherlink.com 1.10,2013-01-12 07:57:00,
2013-01-12 02:12:00,64.9,64.0,29.87,SE,134,2.0,4.0,96,0.00,,,0.00,weatherlink.com 1.10,2013-01-12 08:12:00,
2013-01-12 02:27:00,65.3,65.0,29.86,SSE,166,3.0,5.0,97,0.00,,,0.00,weatherlink.com 1.10,2013-01-12 08:27:00,
2013-01-12 02:42:00,65.7,65.0,29.85,ESE,123,3.0,6.0,97,0.00,,,0.00,weatherlink.com 1.10,2013-01-12 08:42:00,
2013-01-12 02:57:00,66.2,65.0,29.85,SSE,157,2.0,7.0,97,0.00,,,0.00,weatherlink.com 1.10,2013-01-12 08:57:00,
2013-01-12 03:12:00,66.7,66.0,29.86,South,181,1.0,8.0,97,0.00,,,0.00,weatherlink.com 1.10,2013-01-12 09:12:00,
2013-01-12 03:28:00,67.2,66.0,29.85,SSE,168,1.0,3.0,97,0.00,,,0.00,weatherlink.com 1.10,2013-01-12 09:28:00,
2013-01-12 03:44:00,67.8,67.0,29.84,South,175,0.0,8.0,98,0.00,,,0.00,weatherlink.com 1.10,2013-01-12 09:44:00,
2013-01-12 03:58:00,68.2,67.0,29.84,SSE,159,1.0,6.0,97,0.00,,,0.00,weatherlink.com 1.10,2013-01-12 09:58:00,
2013-01-12 04:13:00,68.3,68.0,29.84,South,172,1.0,5.0,97,0.00,,,0.00,weatherlink.com 1.10,2013-01-12 10:13:00,
2013-01-12 04:28:00,68.5,68.0,29.84,South,180,4.0,6.0,98,0.00,,,0.00,weatherlink.com 1.10,2013-01-12 10:28:00,
2013-01-12 04:43:00,68.6,68.0,29.84,SSE,167,1.0,5.0,98,0.00,,,0.00,weatherlink.com 1.10,2013-01-12 10:43:00,
2013-01-12 04:58:00,68.9,68.0,29.84,South,172,0.0,7.0,97,0.00,,,0.00,weatherlink.com 1.10,2013-01-12 10:58:00,
2013-01-12 05:13:00,68.9,68.0,29.83,SSE,148,0.0,8.0,97,0.00,,,0.00,weatherlink.com 1.10,2013-01-12 11:13:00,
2013-01-12 05:28:00,68.9,68.0,29.82,South,190,0.0,3.0,97,0.00,,,0.00,weatherlink.com 1.10,2013-01-12 11:28:00,
2013-01-12 05:43:00,69.3,69.0,29.83,South,182,2.0,9.0,98,0.00,,,0.00,weatherlink.com 1.10,2013-01-12 11:43:00,
2013-01-12 05:58:00,69.3,69.0,29.82,SSE,163,0.0,5.0,98,0.00,,,0.00,weatherlink.com 1.10,2013-01-12 11:58:00,
2013-01-12 06:13:00,69.2,69.0,29.83,South,169,2.0,4.0,98,0.00,,,0.00,weatherlink.com 1.10,2013-01-12 12:13:00,
2013-01-12 06:28:00,69.4,69.0,29.83,East,88,1.0,4.0,98,0.00,,,0.00,weatherlink.com 1.10,2013-01-12 12:28:00,
2013-01-12 06:43:00,69.3,69.0,29.84,East,94,0.0,4.0,98,0.00,,,0.00,weatherlink.com 1.10,2013-01-12 12:43:00,
2013-01-12 06:58:00,69.3,69.0,29.84,South,186,3.0,4.0,98,0.00,,,0.00,weatherlink.com 1.10,2013-01-12 12:58:00,
2013-01-12 07:13:00,69.4,69.0,29.84,ESE,102,4.0,6.0,97,0.00,,,0.00,weatherlink.com 1.10,2013-01-12 13:13:00,
2013-01-12 07:28:00,69.3,69.0,29.84,South,171,1.0,7.0,97,0.00,,,0.00,weatherlink.com 1.10,2013-01-12 13:28:00,
2013-01-12 07:43:00,69.6,69.0,29.85,SSE,162,2.0,7.0,97,0.00,,,0.00,weatherlink.com 1.10,2013-01-12 13:43:00,
2013-01-12 07:58:00,70.0,69.0,29.85,South,178,1.0,7.0,97,0.00,,,0.00,weatherlink.com 1.10,2013-01-12 13:58:00,
2013-01-12 08:13:00,70.3,69.0,29.86,SE,146,1.0,9.0,97,0.00,,,0.00,weatherlink.com 1.10,2013-01-12 14:13:00,
2013-01-12 08:28:00,70.7,70.0,29.86,SE,129,1.0,9.0,97,0.00,,,0.00,weatherlink.com 1.10,2013-01-12 14:28:00,
2013-01-12 08:43:00,71.2,70.0,29.86,South,186,4.0,7.0,96,0.00,,,0.00,weatherlink.com 1.10,2013-01-12 14:43:00,
2013-01-12 08:58:00,71.8,70.0,29.86,South,177,3.0,9.0,94,0.00,,,0.00,weatherlink.com 1.10,2013-01-12 14:58:00,
2013-01-12 09:13:00,72.4,70.0,29.85,ESE,118,0.0,12.0,93,0.01,,,0.01,weatherlink.com 1.10,2013-01-12 15:13:00,
2013-01-12 09:28:00,73.0,70.0,29.85,SSW,198,5.0,11.0,91,0.01,,,0.01,weatherlink.com 1.10,2013-01-12 15:28:00,
2013-01-12 09:43:00,73.5,70.0,29.84,South,177,4.0,10.0,89,0.01,,,0.01,weatherlink.com 1.10,2013-01-12 15:43:00,
2013-01-12 09:58:00,73.9,70.0,29.85,South,185,6.0,17.0,87,0.01,,,0.01,weatherlink.com 1.10,2013-01-12 15:58:00,
2013-01-12 10:13:00,74.4,70.0,29.85,South,191,6.0,13.0,86,0.00,,,0.01,weatherlink.com 1.10,2013-01-12 16:13:00,
2013-01-12 10:28:00,74.1,69.0,29.86,South,173,7.0,10.0,85,0.00,,,0.01,weatherlink.com 1.10,2013-01-12 16:28:00,
2013-01-12 10:43:00,74.2,70.0,29.85,South,186,4.0,10.0,86,0.00,,,0.01,weatherlink.com 1.10,2013-01-12 16:43:00,
2013-01-12 10:58:00,74.6,70.0,29.84,South,178,1.0,10.0,85,0.00,,,0.01,weatherlink.com 1.10,2013-01-12 16:58:00,
2013-01-12 11:13:00,74.8,70.0,29.82,SW,227,4.0,9.0,85,0.00,,,0.01,weatherlink.com 1.10,2013-01-12 17:13:00,
2013-01-12 11:28:00,75.2,70.0,29.82,South,176,0.0,12.0,84,0.00,,,0.01,weatherlink.com 1.10,2013-01-12 17:28:00,
2013-01-12 11:43:00,75.3,70.0,29.81,SE,144,4.0,12.0,82,0.00,,,0.01,weatherlink.com 1.10,2013-01-12 17:43:00,
2013-01-12 11:58:00,74.9,69.0,29.80,ESE,111,8.0,11.0,83,0.00,,,0.01,weatherlink.com 1.10,2013-01-12 17:58:00,
2013-01-12 12:13:00,74.7,69.0,29.80,SW,224,5.0,18.0,83,0.00,,,0.01,weatherlink.com 1.10,2013-01-12 18:13:00,
2013-01-12 12:29:00,74.4,69.0,29.78,SSE,160,3.0,13.0,84,0.00,,,0.01,weatherlink.com 1.10,2013-01-12 18:29:00,
2013-01-12 12:44:00,73.6,69.0,29.78,SSE,164,3.0,12.0,85,0.00,,,0.01,weatherlink.com 1.10,2013-01-12 18:44:00,
2013-01-12 12:59:00,72.8,69.0,29.77,SSE,149,2.0,14.0,87,0.00,,,0.01,weatherlink.com 1.10,2013-01-12 18:59:00,
2013-01-12 13:14:00,72.6,69.0,29.77,South,173,4.0,8.0,89,0.00,,,0.01,weatherlink.com 1.10,2013-01-12 19:14:00,
2013-01-12 13:29:00,73.1,69.0,29.76,SSE,165,0.0,20.0,87,0.00,,,0.01,weatherlink.com 1.10,2013-01-12 19:29:00,
2013-01-12 13:44:00,73.7,69.0,29.74,South,175,3.0,10.0,86,0.00,,,0.01,weatherlink.com 1.10,2013-01-12 19:44:00,
2013-01-12 13:59:00,73.7,69.0,29.74,SE,138,0.0,10.0,86,0.00,,,0.01,weatherlink.com 1.10,2013-01-12 19:59:00,
2013-01-12 14:14:00,73.4,69.0,29.74,SW,222,4.0,7.0,87,0.00,,,0.01,weatherlink.com 1.10,2013-01-12 20:14:00,
2013-01-12 14:29:00,73.1,69.0,29.74,ESE,123,3.0,11.0,87,0.00,,,0.01,weatherlink.com 1.10,2013-01-12 20:29:00,
2013-01-12 14:44:00,73.1,69.0,29.73,South,172,2.0,5.0,87,0.00,,,0.01,weatherlink.com 1.10,2013-01-12 20:44:00,
2013-01-12 14:59:00,72.9,69.0,29.74,South,169,4.0,10.0,87,0.00,,,0.01,weatherlink.com 1.10,2013-01-12 20:59:00,
2013-01-12 15:14:00,72.8,69.0,29.73,SSE,157,2.0,9.0,87,0.00,,,0.01,weatherlink.com 1.10,2013-01-12 21:14:00,
2013-01-12 15:29:00,72.5,69.0,29.73,SE,146,2.0,9.0,88,0.00,,,0.01,weatherlink.com 1.10,2013-01-12 21:29:00,
2013-01-12 15:44:00,72.5,69.0,29.74,South,180,2.0,12.0,88,0.00,,,0.01,weatherlink.com 1.10,2013-01-12 21:44:00,
2013-01-12 16:03:00,72.5,69.0,29.74,South,183,3.0,10.0,88,0.00,,,0.01,weatherlink.com 1.10,2013-01-12 22:03:00,
2013-01-12 16:14:00,72.4,69.0,29.73,SSE,162,1.0,10.0,88,0.00,,,0.01,weatherlink.com 1.10,2013-01-12 22:14:00,
2013-01-12 16:29:00,72.4,69.0,29.73,ESE,103,3.0,11.0,88,0.00,,,0.01,weatherlink.com 1.10,2013-01-12 22:29:00,
2013-01-12 16:44:00,72.4,69.0,29.73,SSE,164,3.0,18.0,88,0.00,,,0.01,weatherlink.com 1.10,2013-01-12 22:44:00,
2013-01-12 16:59:00,72.4,69.0,29.74,South,176,3.0,9.0,88,0.00,,,0.01,weatherlink.com 1.10,2013-01-12 22:59:00,
2013-01-12 17:14:00,72.1,69.0,29.73,SSW,192,2.0,8.0,89,0.00,,,0.01,weatherlink.com 1.10,2013-01-12 23:14:00,
2013-01-12 17:29:00,71.9,69.0,29.73,SSW,204,1.0,7.0,89,0.00,,,0.01,weatherlink.com 1.10,2013-01-12 23:29:00,
2013-01-12 17:44:00,71.9,69.0,29.72,SSE,159,1.0,10.0,89,0.00,,,0.01,weatherlink.com 1.10,2013-01-12 23:44:00,
2013-01-12 17:59:00,71.9,69.0,29.71,South,186,0.0,6.0,89,0.00,,,0.01,weatherlink.com 1.10,2013-01-12 23:59:00,
2013-01-12 18:14:00,71.7,69.0,29.70,SE,145,2.0,7.0,90,0.00,,,0.01,weatherlink.com 1.10,2013-01-13 00:14:00,
2013-01-12 18:29:00,71.8,69.0,29.73,South,181,7.0,14.0,90,0.00,,,0.01,weatherlink.com 1.10,2013-01-13 00:29:00,
2013-01-12 18:44:00,71.8,69.0,29.72,South,172,3.0,12.0,90,0.00,,,0.01,weatherlink.com 1.10,2013-01-13 00:44:00,
2013-01-12 18:59:00,71.7,69.0,29.73,SSW,211,3.0,13.0,90,0.00,,,0.01,weatherlink.com 1.10,2013-01-13 00:59:00,
2013-01-12 19:14:00,71.7,69.0,29.71,SSW,199,7.0,7.0,90,0.00,,,0.01,weatherlink.com 1.10,2013-01-13 01:14:00,
2013-01-12 19:29:00,71.8,69.0,29.72,SE,138,2.0,7.0,91,0.00,,,0.01,weatherlink.com 1.10,2013-01-13 01:29:00,
2013-01-12 19:44:00,71.9,69.0,29.72,South,186,2.0,8.0,91,0.00,,,0.01,weatherlink.com 1.10,2013-01-13 01:44:00,
2013-01-12 19:59:00,72.0,69.0,29.72,South,178,4.0,7.0,91,0.00,,,0.01,weatherlink.com 1.10,2013-01-13 01:59:00,
2013-01-12 20:14:00,72.0,69.0,29.72,South,180,4.0,8.0,91,0.00,,,0.01,weatherlink.com 1.10,2013-01-13 02:14:00,
2013-01-12 20:29:00,72.2,70.0,29.72,SSE,165,4.0,16.0,91,0.00,,,0.01,weatherlink.com 1.10,2013-01-13 02:29:00,
2013-01-12 20:44:00,72.6,70.0,29.72,South,180,5.0,13.0,90,0.00,,,0.01,weatherlink.com 1.10,2013-01-13 02:44:00,
2013-01-12 20:59:00,72.7,70.0,29.71,SE,131,3.0,11.0,90,0.00,,,0.01,weatherlink.com 1.10,2013-01-13 02:59:00,
2013-01-12 21:14:00,72.7,70.0,29.70,South,173,3.0,11.0,90,0.00,,,0.01,weatherlink.com 1.10,2013-01-13 03:14:00,
2013-01-12 21:29:00,72.6,70.0,29.72,South,178,3.0,8.0,91,0.00,,,0.01,weatherlink.com 1.10,2013-01-13 03:29:00,
2013-01-12 21:44:00,72.6,70.0,29.72,SSE,148,2.0,11.0,91,0.00,,,0.01,weatherlink.com 1.10,2013-01-13 03:44:00,
2013-01-12 21:59:00,72.5,70.0,29.72,SSW,197,6.0,7.0,91,0.00,,,0.01,weatherlink.com 1.10,2013-01-13 03:59:00,
2013-01-12 22:14:00,72.5,70.0,29.71,South,187,6.0,13.0,91,0.00,,,0.01,weatherlink.com 1.10,2013-01-13 04:14:00,
2013-01-12 22:29:00,72.6,70.0,29.71,SSE,160,5.0,12.0,91,0.00,,,0.01,weatherlink.com 1.10,2013-01-13 04:29:00,
2013-01-12 22:44:00,72.6,70.0,29.71,South,185,6.0,13.0,91,0.00,,,0.01,weatherlink.com 1.10,2013-01-13 04:44:00,
2013-01-12 22:59:00,72.5,70.0,29.71,SE,142,3.0,12.0,92,0.01,,,0.02,weatherlink.com 1.10,2013-01-13 04:59:00,
2013-01-12 23:14:00,71.9,70.0,29.72,South,182,6.0,10.0,93,0.01,,,0.02,weatherlink.com 1.10,2013-01-13 05:14:00,
2013-01-12 23:29:00,71.4,70.0,29.72,SSW,206,7.0,11.0,94,0.03,,,0.04,weatherlink.com 1.10,2013-01-13 05:29:00,
2013-01-12 23:44:00,71.0,69.0,29.71,SE,132,7.0,14.0,94,0.03,,,0.04,weatherlink.com 1.10,2013-01-13 05:44:00,
2013-01-12 23:59:00,70.9,69.0,29.73,SE,144,8.0,15.0,94,0.02,,,0.04,weatherlink.com 1.10,2013-01-13 05:59:00,